AAL1322 KDEN-KDFW

Flight info

Callsign AAL1322
Flight time N/A
Altitude 37000
Route SLEEK2 SLEEK EZEEE MDANO JOVEM6
Aircraft B738/M-SDE2E3FGHIRWXY/LB1

Departure

Time 2026-05-06 23:48
Airport Denver International Airport (KDEN)

Arrival

Time N/A
Airport Dallas Fort Worth International Airport (KDFW)
Time Latitude Longitude Altitude Speed Heading
2026-05-06 23:18 39.85801 -104.67679 5385 ft 0 kts 360°
2026-05-06 23:32 39.85800 -104.67679 5385 ft 2 kts 360°
2026-05-06 23:32 39.85775 -104.67679 5385 ft 4 kts 360°
2026-05-06 23:33 39.85749 -104.67678 5383 ft 2 kts 360°
2026-05-06 23:33 39.85748 -104.67678 5384 ft 1 kts 360°
2026-05-06 23:37 39.85750 -104.67675 5383 ft 1 kts 35°
2026-05-06 23:37 39.85746 -104.67653 5382 ft 4 kts 107°
2026-05-06 23:37 39.85736 -104.67612 5385 ft 7 kts 106°
2026-05-06 23:38 39.85722 -104.67557 5385 ft 7 kts 114°
2026-05-06 23:38 39.85697 -104.67510 5385 ft 7 kts 126°
2026-05-06 23:38 39.85670 -104.67459 5383 ft 7 kts 117°
2026-05-06 23:38 39.85664 -104.67406 5385 ft 7 kts 90°
2026-05-06 23:39 39.85664 -104.67346 5385 ft 7 kts 90°
2026-05-06 23:39 39.85663 -104.67284 5385 ft 7 kts 90°
2026-05-06 23:39 39.85663 -104.67193 5385 ft 13 kts 90°
2026-05-06 23:39 39.85662 -104.67078 5385 ft 13 kts 90°
2026-05-06 23:40 39.85662 -104.66965 5385 ft 12 kts 91°
2026-05-06 23:40 39.85660 -104.66855 5385 ft 12 kts 90°
2026-05-06 23:40 39.85659 -104.66745 5385 ft 12 kts 90°
2026-05-06 23:40 39.85659 -104.66639 5385 ft 12 kts 90°
2026-05-06 23:41 39.85671 -104.66538 5386 ft 11 kts 72°
2026-05-06 23:41 39.85678 -104.66439 5386 ft 11 kts 90°
2026-05-06 23:41 39.85678 -104.66321 5393 ft 13 kts 90°
2026-05-06 23:41 39.85723 -104.66235 5396 ft 13 kts
2026-05-06 23:42 39.85812 -104.66234 5392 ft 13 kts
2026-05-06 23:42 39.85915 -104.66233 5392 ft 17 kts
2026-05-06 23:42 39.86044 -104.66231 5388 ft 19 kts
2026-05-06 23:42 39.86176 -104.66230 5385 ft 19 kts
2026-05-06 23:43 39.86303 -104.66229 5381 ft 18 kts
2026-05-06 23:43 39.86425 -104.66228 5383 ft 17 kts
2026-05-06 23:43 39.86541 -104.66226 5385 ft 17 kts
2026-05-06 23:43 39.86654 -104.66225 5381 ft 16 kts
2026-05-06 23:44 39.86765 -104.66224 5377 ft 15 kts
2026-05-06 23:44 39.86864 -104.66224 5373 ft 15 kts
2026-05-06 23:44 39.86965 -104.66223 5370 ft 14 kts
2026-05-06 23:44 39.87054 -104.66222 5367 ft 14 kts
2026-05-06 23:45 39.87148 -104.66219 5366 ft 13 kts
2026-05-06 23:45 39.87237 -104.66218 5364 ft 13 kts
2026-05-06 23:45 39.87324 -104.66217 5363 ft 12 kts
2026-05-06 23:45 39.87421 -104.66217 5362 ft 18 kts
2026-05-06 23:46 39.87565 -104.66213 5362 ft 21 kts
2026-05-06 23:46 39.87706 -104.66211 5360 ft 19 kts
2026-05-06 23:46 39.87754 -104.66095 5356 ft 17 kts 91°
2026-05-06 23:46 39.87753 -104.65948 5355 ft 16 kts 91°
2026-05-06 23:47 39.87751 -104.65741 5353 ft 46 kts 91°
2026-05-06 23:47 39.87747 -104.65380 5354 ft 84 kts 91°
2026-05-06 23:47 39.87743 -104.64327 5334 ft 142 kts 90°
2026-05-06 23:47 39.87731 -104.62832 5374 ft 184 kts 91°
2026-05-06 23:48 39.87717 -104.61155 6049 ft 179 kts 93°
2026-05-06 23:48 39.87531 -104.59513 6705 ft 190 kts 111°
2026-05-06 23:48 39.86973 -104.57928 7235 ft 192 kts 121°
2026-05-06 23:48 39.86436 -104.56411 8033 ft 184 kts 111°
2026-05-06 23:49 39.85925 -104.54745 8223 ft 210 kts 115°
2026-05-06 23:49 39.85149 -104.53108 8592 ft 216 kts 135°
2026-05-06 23:49 39.84267 -104.52324 8659 ft 227 kts 164°
2026-05-06 23:49 39.82741 -104.51963 8848 ft 242 kts 174°
2026-05-06 23:50 39.81019 -104.51675 8990 ft 262 kts 174°
2026-05-06 23:50 39.77135 -104.50957 9724 ft 294 kts 173°
2026-05-06 23:50 39.75098 -104.50536 10359 ft 302 kts 173°
2026-05-06 23:51 39.72944 -104.50071 10552 ft 325 kts 172°
2026-05-06 23:51 39.70664 -104.49561 10953 ft 338 kts 172°
2026-05-06 23:51 39.68326 -104.49022 11564 ft 344 kts 172°
2026-05-06 23:51 39.65955 -104.48467 12222 ft 349 kts 172°
2026-05-06 23:52 39.63549 -104.47899 12855 ft 354 kts 173°
2026-05-06 23:52 39.61103 -104.47318 13497 ft 359 kts 173°
2026-05-06 23:52 39.58643 -104.46734 14115 ft 363 kts 173°
2026-05-06 23:52 39.56162 -104.46144 14710 ft 368 kts 173°
2026-05-06 23:53 39.53600 -104.45534 15315 ft 371 kts 173°
2026-05-06 23:53 39.51088 -104.44938 15932 ft 374 kts 172°
2026-05-06 23:53 39.48524 -104.44329 16548 ft 377 kts 172°
2026-05-06 23:53 39.45927 -104.43713 17129 ft 382 kts 172°
2026-05-06 23:54 39.43286 -104.43087 17707 ft 386 kts 172°
2026-05-06 23:54 39.40635 -104.42458 18284 ft 390 kts 172°
2026-05-06 23:54 39.37948 -104.41821 18792 ft 394 kts 171°
2026-05-06 23:54 39.35233 -104.41178 19252 ft 399 kts 171°
2026-05-06 23:55 39.32489 -104.40529 19721 ft 403 kts 170°
2026-05-06 23:55 39.29720 -104.39874 20179 ft 408 kts 169°
2026-05-06 23:55 39.26943 -104.39218 20638 ft 412 kts 169°
2026-05-06 23:55 39.24105 -104.38548 21077 ft 417 kts 169°
2026-05-06 23:56 39.21206 -104.37864 21509 ft 421 kts 168°
2026-05-06 23:56 39.18397 -104.37202 21952 ft 425 kts 168°
2026-05-06 23:56 39.15424 -104.36503 22401 ft 430 kts 168°
2026-05-06 23:56 39.12479 -104.35741 22847 ft 432 kts 165°
2026-05-06 23:57 39.09546 -104.34839 23395 ft 433 kts 163°
2026-05-06 23:57 39.07606 -104.34207 23673 ft 436 kts 163°
2026-05-06 23:57 39.03650 -104.32893 24124 ft 442 kts 163°
2026-05-06 23:57 39.00663 -104.31906 24495 ft 445 kts 163°
2026-05-06 23:58 38.97649 -104.30923 24864 ft 448 kts 163°
2026-05-06 23:58 38.94617 -104.29944 25213 ft 451 kts 163°
2026-05-06 23:58 38.91604 -104.28979 25537 ft 453 kts 163°
2026-05-06 23:58 38.88566 -104.28012 26123 ft 449 kts 163°
2026-05-06 23:59 38.85517 -104.27043 26439 ft 454 kts 163°
2026-05-06 23:59 38.82427 -104.26061 26647 ft 460 kts 163°
2026-05-06 23:59 38.79307 -104.25069 26959 ft 463 kts 163°
2026-05-06 23:59 38.76181 -104.24077 27320 ft 465 kts 163°
2026-05-07 00:00 38.73031 -104.23078 27646 ft 468 kts 163°
2026-05-07 00:00 38.69858 -104.22073 27962 ft 470 kts 164°
2026-05-07 00:00 38.66687 -104.21065 28488 ft 467 kts 165°
2026-05-07 00:00 38.64605 -104.20405 28792 ft 467 kts 165°
2026-05-07 00:01 38.60394 -104.19077 29049 ft 474 kts 165°
2026-05-07 00:01 38.57142 -104.18052 29260 ft 478 kts 164°
2026-05-07 00:01 38.53953 -104.17005 29549 ft 479 kts 160°
2026-05-07 00:01 38.50864 -104.15443 29821 ft 478 kts 150°
2026-05-07 00:02 38.47994 -104.13333 30099 ft 476 kts 142°
2026-05-07 00:02 38.45399 -104.10707 30445 ft 473 kts 137°
2026-05-07 00:02 38.42909 -104.07973 30711 ft 474 kts 136°
2026-05-07 00:02 38.40414 -104.05216 30890 ft 477 kts 137°
2026-05-07 00:03 38.37890 -104.02443 31096 ft 480 kts 137°
2026-05-07 00:03 38.35374 -103.99703 31321 ft 481 kts 137°
2026-05-07 00:03 38.32793 -103.96915 31555 ft 483 kts 138°
2026-05-07 00:03 38.30250 -103.94182 31773 ft 484 kts 138°
2026-05-07 00:04 38.27666 -103.91412 32015 ft 485 kts 140°
2026-05-07 00:04 38.25088 -103.88654 32352 ft 483 kts 140°
2026-05-07 00:04 38.22525 -103.85913 32687 ft 482 kts 140°
2026-05-07 00:04 38.19960 -103.83168 32991 ft 482 kts 141°
2026-05-07 00:05 38.17395 -103.80429 33242 ft 482 kts 141°
2026-05-07 00:05 38.14823 -103.77683 33512 ft 481 kts 142°
2026-05-07 00:05 38.12270 -103.74961 33804 ft 481 kts 142°
2026-05-07 00:05 38.09738 -103.72262 34076 ft 480 kts 142°
2026-05-07 00:06 38.08013 -103.70424 34203 ft 480 kts 142°
2026-05-07 00:06 38.04624 -103.66821 34472 ft 480 kts 143°
2026-05-07 00:06 38.02063 -103.64104 34677 ft 480 kts 143°
2026-05-07 00:06 37.99502 -103.61390 34878 ft 480 kts 143°
2026-05-07 00:07 37.96938 -103.58675 35068 ft 480 kts 143°
2026-05-07 00:07 37.94376 -103.55965 35285 ft 480 kts 143°
2026-05-07 00:07 37.91810 -103.53252 35488 ft 480 kts 143°
2026-05-07 00:07 37.89250 -103.50547 35676 ft 480 kts 143°
2026-05-07 00:08 37.87552 -103.48753 35804 ft 480 kts 144°
2026-05-07 00:08 37.84148 -103.45160 36227 ft 474 kts 145°
2026-05-07 00:08 37.81611 -103.42485 36439 ft 474 kts 145°
2026-05-07 00:08 37.79937 -103.40722 36530 ft 474 kts 145°
2026-05-07 00:09 37.76537 -103.37149 36690 ft 476 kts 145°
2026-05-07 00:09 37.74024 -103.34513 36826 ft 476 kts 146°
2026-05-07 00:09 37.71481 -103.31845 37026 ft 475 kts 146°
2026-05-07 00:09 37.68937 -103.29173 37205 ft 474 kts 146°
2026-05-07 00:10 37.63835 -103.23829 37211 ft 477 kts 146°
2026-05-07 00:10 37.59601 -103.19399 37197 ft 475 kts 146°
2026-05-07 00:11 37.53709 -103.13245 37215 ft 472 kts 146°
2026-05-07 00:11 37.49473 -103.08829 37202 ft 471 kts 147°
2026-05-07 00:12 37.43619 -103.02745 37180 ft 469 kts 147°
2026-05-07 00:12 37.38583 -102.97519 37194 ft 470 kts 147°
2026-05-07 00:13 37.34381 -102.93166 37198 ft 471 kts 147°
2026-05-07 00:13 37.28439 -102.87022 37175 ft 474 kts 147°
2026-05-07 00:14 37.23368 -102.81787 37151 ft 477 kts 148°
2026-05-07 00:14 37.19067 -102.77354 37156 ft 479 kts 148°
2026-05-07 00:15 37.13947 -102.72085 37161 ft 481 kts 148°
2026-05-07 00:15 37.08762 -102.66761 37149 ft 483 kts 148°
2026-05-07 00:16 37.03558 -102.61424 37100 ft 483 kts 148°
2026-05-07 00:16 36.98360 -102.56102 37120 ft 482 kts 149°
2026-05-07 00:17 36.92338 -102.49950 37122 ft 480 kts 149°
2026-05-07 00:17 36.88043 -102.45569 37126 ft 478 kts 149°
2026-05-07 00:18 36.82028 -102.39447 37087 ft 476 kts 150°
2026-05-07 00:18 36.77773 -102.35126 37128 ft 473 kts 151°
2026-05-07 00:19 36.72682 -102.29962 37140 ft 471 kts 151°
2026-05-07 00:19 36.66770 -102.23979 37138 ft 471 kts 151°
2026-05-07 00:20 36.61682 -102.18840 37142 ft 471 kts 151°
2026-05-07 00:20 36.56591 -102.13705 37132 ft 471 kts 152°
2026-05-07 00:21 36.51493 -102.08575 37132 ft 472 kts 152°
2026-05-07 00:21 36.46416 -102.03473 37153 ft 474 kts 152°
2026-05-07 00:22 36.41275 -101.98316 37129 ft 475 kts 152°
2026-05-07 00:22 36.36120 -101.93153 37128 ft 476 kts 153°
2026-05-07 00:23 36.30951 -101.87986 37122 ft 478 kts 153°
2026-05-07 00:23 36.25780 -101.82824 37131 ft 478 kts 153°
2026-05-07 00:24 36.20590 -101.77652 37119 ft 479 kts 153°
2026-05-07 00:24 36.15431 -101.72518 37066 ft 478 kts 154°
2026-05-07 00:25 36.10263 -101.67383 37095 ft 476 kts 155°
2026-05-07 00:25 36.05989 -101.63145 37098 ft 474 kts 155°
2026-05-07 00:26 36.00852 -101.58062 37104 ft 471 kts 155°
2026-05-07 00:26 35.95751 -101.53022 37095 ft 469 kts 155°
2026-05-07 00:27 35.90665 -101.48004 37088 ft 465 kts 156°
2026-05-07 00:27 35.85621 -101.43038 37098 ft 463 kts 156°
2026-05-07 00:28 35.80619 -101.38102 37104 ft 465 kts 154°
2026-05-07 00:28 35.75892 -101.32482 37105 ft 478 kts 148°
2026-05-07 00:29 35.71281 -101.26563 37034 ft 478 kts 149°
2026-05-07 00:30 35.62054 -101.14892 37108 ft 474 kts 150°
2026-05-07 00:30 35.57420 -101.09129 37120 ft 474 kts 150°
2026-05-07 00:31 35.52804 -101.03405 37126 ft 475 kts 150°
2026-05-07 00:31 35.48160 -100.97651 37112 ft 475 kts 150°
2026-05-07 00:32 35.43498 -100.91880 37104 ft 476 kts 150°
2026-05-07 00:32 35.38832 -100.86115 37086 ft 477 kts 150°
2026-05-07 00:33 35.34183 -100.80379 37076 ft 478 kts 150°
2026-05-07 00:33 35.29502 -100.74614 37063 ft 478 kts 150°
2026-05-07 00:34 35.24816 -100.68851 37024 ft 477 kts 150°
2026-05-07 00:34 35.20137 -100.63105 37049 ft 476 kts 150°
2026-05-07 00:35 35.15462 -100.57380 37052 ft 476 kts 150°
2026-05-07 00:35 35.10790 -100.51669 37061 ft 475 kts 151°
2026-05-07 00:36 35.06149 -100.46002 37046 ft 475 kts 151°
2026-05-07 00:36 35.01496 -100.40326 37047 ft 472 kts 151°
2026-05-07 00:37 34.96847 -100.34669 37043 ft 471 kts 151°
2026-05-07 00:37 34.92214 -100.29042 37042 ft 470 kts 151°
2026-05-07 00:38 34.87597 -100.23445 37039 ft 468 kts 151°
2026-05-07 00:38 34.83005 -100.17887 37042 ft 468 kts 152°
2026-05-07 00:39 34.78398 -100.12319 37041 ft 467 kts 152°
2026-05-07 00:39 34.73785 -100.06756 37039 ft 467 kts 152°
2026-05-07 00:40 34.69166 -100.01194 37037 ft 468 kts 152°
2026-05-07 00:40 34.64534 -99.95625 37038 ft 469 kts 152°
2026-05-07 00:41 34.59885 -99.90046 37035 ft 471 kts 152°
2026-05-07 00:41 34.55193 -99.84430 37023 ft 476 kts 151°
2026-05-07 00:42 34.50491 -99.78801 37016 ft 478 kts 151°
2026-05-07 00:42 34.45755 -99.73136 37016 ft 479 kts 151°
2026-05-07 00:43 34.40999 -99.67462 37016 ft 479 kts 151°
2026-05-07 00:43 34.36250 -99.61804 37017 ft 479 kts 151°
2026-05-07 00:44 34.31504 -99.56307 36995 ft 461 kts 160°
2026-05-07 00:44 34.28876 -99.54358 37040 ft 430 kts 172°
2026-05-07 00:44 34.26154 -99.53072 37001 ft 411 kts 180°
2026-05-07 00:45 34.23436 -99.52304 37014 ft 394 kts 187°
2026-05-07 00:45 34.20760 -99.52013 37003 ft 378 kts 195°
2026-05-07 00:45 34.18186 -99.52194 37008 ft 363 kts 202°
2026-05-07 00:45 34.15770 -99.52810 37012 ft 350 kts 209°
2026-05-07 00:46 34.11465 -99.55152 37010 ft 332 kts 221°
2026-05-07 00:46 34.08005 -99.58599 37005 ft 321 kts 232°
2026-05-07 00:47 34.05422 -99.62931 37007 ft 318 kts 243°
2026-05-07 00:47 34.03839 -99.67913 37013 ft 322 kts 254°
2026-05-07 00:48 34.03361 -99.73340 37013 ft 332 kts 265°
2026-05-07 00:48 34.04136 -99.78945 37015 ft 349 kts 277°
2026-05-07 00:49 34.06023 -99.84467 37004 ft 366 kts 287°
2026-05-07 00:49 34.07455 -99.87039 37012 ft 385 kts 296°
2026-05-07 00:49 34.09297 -99.89436 37052 ft 393 kts 299°
2026-05-07 00:50 34.13179 -99.94133 37024 ft 397 kts 300°
2026-05-07 00:50 34.17104 -99.98817 37017 ft 397 kts 300°
2026-05-07 00:51 34.21007 -100.03514 37024 ft 395 kts 300°
2026-05-07 00:51 34.24875 -100.08199 37035 ft 393 kts 300°
2026-05-07 00:52 34.28700 -100.12848 37036 ft 391 kts 299°
2026-05-07 00:52 34.32522 -100.17501 37132 ft 389 kts 299°
2026-05-07 00:53 34.36339 -100.22158 37036 ft 388 kts 299°
2026-05-07 00:53 34.40131 -100.26785 37051 ft 386 kts 299°
2026-05-07 00:54 34.43900 -100.31392 37022 ft 384 kts 299°
2026-05-07 00:54 34.47633 -100.35963 37027 ft 384 kts 299°
2026-05-07 00:55 34.51389 -100.40569 37030 ft 384 kts 299°
2026-05-07 00:55 34.55139 -100.45171 37113 ft 385 kts 298°
2026-05-07 00:56 34.59437 -100.49367 37070 ft 423 kts 316°
2026-05-07 00:56 34.62193 -100.50846 37020 ft 441 kts 323°
2026-05-07 00:56 34.65195 -100.51934 37044 ft 459 kts 332°
2026-05-07 00:57 34.68424 -100.52482 37021 ft 483 kts 343°